Location: Córrego Montividiu
(13.2496°S, 48.8603°W)
Time: 11:19:37
(UTC+00:00)

COBE Rocket - Pass Details

Date: 11 March 2026
Orbit: 675 x 772 km, 97.1° (Epoch: 22 April)

Event Time Altitude Azimuth Distance (km) Brightness Sun altitude
Rises 22:17:50 0° 10° (N) 3,048 6.9 -11.9°
Reaches altitude 10° 22:20:02 10° 9° (N) 2,149 6.2 -12.5°
Maximum altitude 22:24:45 85° 282° (WNW) 720 3.9 -13.6°
Drops below altitude 10° 22:29:40 10° 192° (SSW) 2,230 6.7 -14.8°
Sets 22:31:59 0° 191° (SSW) 3,172 7.4 -15.4°
